Wind_Speed
32 30 28 28 28 27 28 28 27 27 24 25 25 23 23 23 22 21 22 22 21 20 21 21 20 19 20 20 20 20 20 19 19 19 19 18 18 19 19 19 18 19 21 21
33 31 31 31 30 29 29 30 31 30 28 27 27 26 26 26 25 25 25 24 22 21 22 22 22 22 22 22 22 22 21 21 21 21 21 21 21 21 20 21 21 22 22 23
33 31 31 33 30 29 28 28 30 31 29 28 29 28 29 28 28 27 26 26 24 24 23 24 23 23 23 22 22 22 23 23 23 23 23 23 23 23 23 23 23 24 24 24
33 32 34 33 29 29 30 30 30 31 31 31 32 32 31 29 29 28 27 28 26 25 25 26 26 26 25 24 23 23 23 23 24 25 25 25 24 24 25 26 26 26 26 26
33 33 34 32 31 31 33 34 34 34 34 34 34 33 31 31 31 30 29 29 28 27 27 27 27 27 27 26 26 25 25 26 26 26 26 26 26 26 27 27 28 28 28 29
35 34 32 34 34 32 33 35 36 36 36 35 35 34 34 33 33 32 32 31 31 30 29 30 30 29 28 28 28 28 28 28 29 28 28 29 29 29 29 30 30 30 30 30
35 34 33 33 31 31 34 36 37 38 37 37 37 37 37 35 34 33 34 34 33 33 33 32 32 32 31 31 31 31 31 31 32 32 31 31 32 32 32 33 33 33 33 33
35 34 34 34 33 32 33 35 36 36 37 37 37 38 38 37 36 36 36 36 35 35 35 35 35 34 34 34 33 33 34 34 34 34 34 34 34 34 35 35 36 35 36 36
35 36 36 35 36 35 35 36 36 36 36 37 37 37 38 38 39 38 38 38 38 37 37 37 36 35 35 35 35 35 36 36 37 37 36 37 37 38 38 38 38 38 38 38
37 38 38 37 37 38 39 39 38 37 37 37 37 36 37 38 38 38 39 39 38 37 37 37 37 37 37 37 37 37 37 38 39 39 39 39 39 39 40 40 40 39 40 40
38 39 39 40 40 39 40 40 39 38 37 37 37 37 37 38 38 38 38 38 38 38 38 38 38 39 39 39 39 39 39 40 41 41 40 40 41 41 41 41 41 41 42 42
37 38 39 40 40 40 39 38 38 37 37 37 37 37 37 36 36 35 36 37 38 39 39 39 39 40 40 40 41 41 40 41 42 42 42 42 42 42 42 42 43 43 43 43
37 38 37 37 39 40 37 36 36 36 36 36 36 36 35 35 35 35 36 37 38 39 40 40 40 40 40 41 42 42 41 41 41 42 42 43 43 43 44 44 45 45 45 44
34 35 36 35 35 36 36 36 36 36 35 35 36 36 35 35 34 35 36 37 38 39 40 40 39 39 39 40 41 41 41 41 41 41 41 42 43 43 44 44 45 46 45 44
32 31 31 32 33 32 33 34 34 35 35 35 35 35 35 34 34 35 35 36 38 38 38 39 39 39 39 39 39 40 40 40 40 41 41 41 42 41 42 42 43 43 43 42
30 30 29 29 30 29 30 31 32 33 33 34 35 34 34 33 34 35 35 36 37 37 37 38 38 39 38 38 39 39 39 40 40 40 40 40 39 39 40 40 40 40 39 39
28 28 28 28 27 28 28 28 29 29 29 31 33 33 33 33 33 33 34 35 36 36 36 36 37 37 37 38 38 39 39 39 38 38 38 37 38 38 38 38 38 38 38 38
27 27 27 27 26 25 24 26 27 27 28 29 30 30 30 31 32 32 32 33 34 34 35 35 36 36 36 36 37 37 37 38 38 37 36 35 36 36 36 37 37 36 35 36
23 24 24 24 24 23 23 25 25 26 27 27 27 27 28 29 30 30 31 31 32 33 32 33 33 33 33 34 34 34 34 35 35 34 33 33 34 34 35 34 34 34 34 35
20 20 20 20 21 20 21 22 22 23 24 24 24 25 26 27 28 29 30 30 30 29 29 30 30 30 30 30 31 31 31 32 32 32 32 32 32 32 32 32 33 33 33 34
17 18 18 19 18 18 19 20 20 20 21 22 23 24 24 25 25 26 26 26 26 25 26 26 27 27 27 27 28 29 30 30 31 30 30 30 30 30 30 30 31 31 31 31
16 17 17 17 17 17 17 17 18 19 20 20 21 21 21 21 20 21 21 22 23 23 24 24 24 25 25 26 26 27 28 28 28 28 28 28 28 28 29 30 30 30 30 31
15 16 16 16 16 15 15 15 16 16 17 17 17 18 19 19 19 20 20 20 20 20 21 22 22 22 23 24 25 25 25 25 26 27 28 28 28 28 28 29 30 30 31 32
14 15 16 15 13 13 13 13 13 13 14 14 14 15 16 17 17 17 18 18 19 20 20 20 21 21 22 22 23 23 23 24 25 26 26 27 27 27 28 28 28 29 31 32
13 14 13 12 12 12 11 12 12 12 13 12 12 13 14 15 15 16 17 17 17 18 19 19 20 20 20 21 21 21 22 23 23 23 24 25 26 26 26 27 28 29 31 31
11 11 12 11 11 11 11 12 12 12 12 12 12 13 14 14 14 14 15 15 15 16 16 17 18 19 19 20 21 21 22 21 22 23 24 24 24 25 25 26 28 29 30 30
11 12 12 12 11 11 11 11 11 11 11 11 12 12 13 13 13 13 13 13 14 15 15 16 17 17 18 19 19 20 20 21 22 23 23 24 25 26 27 28 28 29 29 29
Wind_Direction
229 227 230 235 239 238 238 239 243 248 253 253 255 255 256 259 261 258 261 261 259 259 264 264 267 271 273 275 276 278 279 281 281 283 284 285 287 288 289 291 292 295 298 295
233 230 232 235 236 238 241 242 242 245 246 249 250 250 251 256 260 258 262 263 265 263 264 264 265 268 271 271 272 274 276 278 281 282 284 285 287 288 289 290 292 297 299 296
236 234 236 237 236 239 241 242 245 246 248 247 249 249 252 256 259 258 260 262 264 265 264 265 265 267 268 271 271 271 273 275 278 279 281 283 286 288 288 291 290 293 295 296
239 238 240 240 239 239 242 243 244 245 245 248 249 251 253 256 258 260 261 260 262 262 264 264 265 265 268 270 271 273 275 277 279 279 281 282 285 287 287 288 290 293 294 293
239 242 243 243 243 240 242 244 244 245 247 250 251 252 252 253 254 257 259 259 261 261 261 261 264 265 266 268 270 273 274 276 278 278 279 281 283 285 286 288 289 290 291 290
241 241 243 245 244 243 245 247 247 246 248 250 250 250 252 255 256 258 261 261 260 261 261 261 263 264 265 269 270 271 272 273 275 276 276 279 282 284 285 287 289 290 291 291
243 242 242 245 245 243 243 246 248 249 249 251 251 250 252 255 257 257 259 260 260 260 260 261 263 264 265 267 267 267 270 271 272 273 275 277 280 283 284 285 287 288 289 290
244 244 242 242 244 243 244 247 250 251 253 253 253 252 252 253 254 255 257 258 258 259 260 261 263 264 264 266 266 267 270 272 272 273 274 276 278 281 282 284 285 288 289 289
241 242 244 244 244 244 246 248 251 252 254 255 256 254 253 253 254 254 256 257 258 259 260 261 262 263 263 265 267 267 270 271 272 273 274 276 278 280 281 283 284 286 287 288
241 242 243 244 245 246 248 249 250 252 253 255 255 254 254 254 255 256 256 257 257 258 258 259 261 263 263 264 266 267 269 270 271 273 275 276 278 280 281 281 282 283 285 286
242 243 243 244 246 247 247 249 251 252 253 254 255 254 254 255 255 257 257 257 257 257 257 258 260 262 264 264 265 266 268 269 270 272 273 275 277 278 280 281 282 284 286 286
244 245 243 244 246 249 250 250 251 252 252 253 253 253 253 255 257 258 257 257 258 259 260 261 263 264 264 264 265 266 268 269 270 272 273 275 276 277 278 280 281 283 285 285
247 248 247 247 247 249 251 251 251 251 252 252 251 251 252 254 256 257 258 258 260 261 262 263 265 265 265 264 265 267 269 270 271 272 273 273 275 276 278 279 280 282 283 284
249 248 246 247 249 250 251 251 251 251 251 251 251 252 252 254 255 257 259 260 261 262 262 263 264 264 264 264 265 267 268 269 270 272 273 274 275 276 277 278 279 280 281 281
249 250 248 249 250 252 251 250 249 249 249 251 251 252 253 254 255 258 260 261 261 261 262 262 262 263 264 265 265 266 267 269 271 274 275 276 276 277 278 279 280 280 280 281
248 251 252 251 252 252 252 250 248 247 248 250 251 252 254 256 258 259 261 261 261 261 262 262 263 264 265 265 266 266 268 271 273 275 276 277 276 277 279 279 280 281 282 283
247 250 253 252 250 248 248 248 248 249 249 250 252 253 255 257 259 261 262 262 262 262 263 263 264 264 266 267 268 268 270 271 273 275 276 277 277 278 279 281 282 282 281 283
248 250 251 251 249 246 246 248 250 250 251 252 253 255 256 258 259 261 262 262 262 262 263 265 265 266 267 269 270 270 270 271 273 276 275 277 279 280 281 282 282 281 281 283
247 248 248 249 248 248 247 249 250 251 252 253 254 255 257 259 259 259 260 261 263 264 265 265 266 267 268 269 269 270 270 271 272 275 276 279 280 280 281 282 283 283 283 283
247 247 246 245 246 246 247 248 248 251 254 254 255 256 258 260 260 260 261 263 264 265 266 266 266 266 267 269 270 271 271 272 273 275 278 280 280 282 283 283 282 283 284 283
243 243 243 244 245 244 244 247 251 253 254 255 257 259 260 260 262 262 262 262 262 263 265 267 267 267 268 271 272 273 273 275 276 277 281 283 284 285 284 284 285 285 285 287
240 238 239 240 241 244 246 249 250 250 254 257 258 261 264 263 262 263 263 263 263 265 267 268 268 268 269 271 273 275 275 276 277 279 282 285 287 287 287 286 286 287 287 288
240 239 239 239 242 247 249 250 251 253 257 259 260 262 263 261 261 264 265 264 264 266 269 271 271 271 273 274 275 276 278 279 280 282 284 285 285 286 287 287 288 288 290 291
240 239 238 241 246 250 250 249 253 258 259 261 262 262 263 263 265 267 269 268 268 270 271 271 273 275 276 277 277 277 279 280 282 284 285 285 287 288 287 288 290 291 292 292
245 242 242 246 247 249 252 253 255 258 262 264 265 264 265 268 270 272 273 273 274 275 274 273 274 277 278 280 282 283 285 286 287 288 288 288 288 289 290 291 292 293 293 293
248 249 248 251 251 250 253 253 254 257 261 265 268 269 269 271 274 276 277 278 280 279 277 277 278 280 281 282 282 284 286 287 289 289 290 291 292 292 293 294 294 295 295 294
246 248 250 250 249 251 251 251 251 256 262 268 273 274 273 273 276 279 279 279 282 282 281 282 283 283 284 284 284 286 287 287 288 289 290 293 295 296 296 296 297 298 298 298
Height
5845 5850 5853 5856 5859 5862 5864 5867 5869 5870 5872 5873 5873 5874 5875 5876 5876 5877 5877 5877 5879 5880 5881 5882 5883 5883 5883 5884 5884 5884 5884 5884 5884 5884 5884 5884 5883 5882 5882 5881 5880 5879 5877 5876
5836 5841 5844 5847 5851 5854 5857 5860 5862 5863 5865 5866 5867 5867 5869 5870 5871 5871 5871 5872 5873 5875 5877 5877 5879 5879 5879 5879 5879 5879 5879 5879 5879 5879 5879 5879 5879 5878 5877 5876 5875 5874 5872 5871
5829 5834 5836 5839 5843 5847 5849 5851 5855 5856 5857 5858 5859 5860 5862 5864 5865 5865 5865 5867 5869 5870 5871 5872 5873 5874 5874 5874 5874 5874 5874 5874 5874 5874 5874 5874 5874 5873 5872 5871 5870 5868 5867 5866
5821 5825 5828 5834 5836 5839 5842 5843 5845 5847 5848 5850 5851 5853 5855 5857 5858 5858 5860 5861 5862 5863 5865 5867 5867 5868 5868 5869 5869 5869 5869 5869 5869 5869 5869 5869 5868 5867 5866 5865 5864 5863 5861 5860
5813 5816 5820 5825 5827 5830 5833 5834 5836 5838 5840 5841 5843 5845 5847 5849 5850 5852 5853 5854 5855 5857 5859 5860 5860 5861 5862 5863 5863 5863 5863 5863 5863 5863 5863 5862 5862 5861 5860 5859 5858 5856 5854 5853
5804 5808 5812 5816 5818 5821 5824 5824 5826 5828 5830 5832 5835 5837 5839 5840 5842 5844 5845 5847 5848 5850 5851 5852 5852 5852 5854 5855 5856 5856 5856 5856 5856 5856 5855 5855 5855 5854 5853 5852 5850 5849 5847 5845
5795 5798 5802 5806 5808 5811 5814 5814 5815 5818 5820 5823 5826 5828 5830 5832 5833 5836 5838 5839 5841 5842 5843 5844 5844 5845 5846 5847 5848 5848 5848 5848 5848 5848 5847 5847 5847 5846 5845 5843 5842 5840 5839 5837
5786 5789 5794 5795 5797 5800 5801 5803 5806 5808 5811 5813 5816 5818 5820 5822 5824 5827 5829 5830 5832 5833 5834 5835 5836 5837 5838 5838 5839 5839 5839 5839 5839 5839 5838 5838 5838 5837 5835 5834 5833 5831 5830 5828
5777 5781 5783 5784 5785 5788 5791 5793 5796 5799 5801 5803 5805 5808 5810 5813 5815 5817 5819 5820 5822 5823 5825 5825 5826 5827 5828 5829 5829 5829 5830 5830 5830 5830 5829 5829 5828 5827 5825 5824 5823 5821 5820 5818
5766 5769 5772 5774 5776 5778 5781 5784 5786 5789 5791 5792 5795 5797 5799 5802 5804 5806 5808 5809 5811 5813 5814 5815 5816 5817 5818 5819 5819 5819 5820 5820 5819 5819 5819 5818 5817 5816 5815 5814 5812 5811 5809 5807
5756 5759 5761 5764 5766 5768 5771 5774 5776 5779 5781 5782 5784 5786 5788 5790 5792 5794 5796 5798 5800 5802 5803 5805 5806 5807 5807 5808 5808 5809 5809 5809 5808 5808 5808 5807 5806 5805 5804 5803 5802 5800 5799 5797
5745 5748 5750 5753 5755 5757 5760 5763 5765 5768 5770 5772 5773 5775 5778 5780 5782 5783 5785 5787 5789 5791 5792 5794 5795 5796 5796 5797 5797 5798 5798 5797 5797 5796 5796 5796 5795 5794 5793 5792 5791 5789 5787 5786
5736 5737 5740 5743 5744 5747 5750 5753 5756 5758 5760 5762 5763 5765 5768 5770 5771 5773 5775 5777 5778 5780 5781 5782 5783 5783 5784 5784 5785 5785 5785 5785 5784 5784 5784 5784 5783 5782 5781 5781 5779 5777 5776 5774
5727 5729 5731 5734 5734 5737 5740 5743 5745 5748 5750 5751 5753 5755 5757 5759 5761 5763 5764 5766 5767 5768 5769 5770 5771 5771 5772 5772 5773 5773 5773 5773 5772 5772 5771 5770 5770 5769 5768 5768 5767 5765 5764 5762
5719 5720 5723 5725 5726 5728 5731 5733 5735 5738 5739 5741 5743 5745 5747 5749 5751 5752 5753 5754 5755 5756 5757 5758 5759 5760 5760 5760 5761 5761 5761 5761 5760 5760 5758 5757 5756 5755 5755 5755 5753 5752 5751 5750
5711 5713 5714 5716 5719 5720 5722 5723 5725 5727 5729 5732 5734 5736 5737 5739 5740 5741 5743 5743 5744 5745 5746 5747 5747 5748 5749 5749 5749 5749 5750 5750 5749 5748 5747 5746 5744 5743 5743 5742 5741 5740 5738 5737
5704 5706 5707 5709 5711 5712 5714 5715 5717 5718 5720 5723 5725 5726 5728 5729 5730 5731 5732 5733 5733 5734 5735 5736 5736 5737 5737 5738 5738 5738 5739 5738 5737 5737 5736 5735 5734 5733 5732 5731 5729 5728 5727 5725
5696 5698 5700 5702 5703 5704 5706 5708 5709 5711 5713 5714 5716 5717 5719 5720 5721 5722 5722 5723 5723 5724 5725 5725 5726 5726 5727 5727 5727 5727 5727 5727 5727 5726 5726 5725 5723 5722 5721 5719 5718 5717 5716 5714
5690 5691 5693 5695 5696 5697 5699 5701 5702 5704 5705 5706 5708 5709 5711 5712 5712 5713 5714 5714 5714 5715 5715 5716 5716 5716 5717 5717 5717 5717 5717 5717 5716 5716 5716 5715 5714 5712 5710 5709 5707 5706 5705 5703
5685 5686 5687 5689 5690 5691 5693 5694 5696 5697 5698 5700 5701 5702 5703 5704 5704 5705 5705 5706 5706 5706 5706 5707 5707 5708 5708 5708 5708 5708 5708 5708 5707 5707 5707 5706 5704 5702 5700 5699 5697 5696 5695 5693
5680 5682 5683 5685 5685 5686 5688 5689 5690 5690 5692 5693 5694 5695 5696 5696 5697 5697 5698 5698 5699 5698 5699 5699 5700 5700 5700 5700 5700 5700 5700 5700 5699 5699 5698 5697 5696 5694 5692 5690 5688 5687 5685 5683
5677 5678 5679 5680 5681 5682 5683 5684 5685 5686 5687 5688 5689 5690 5690 5691 5691 5691 5691 5692 5692 5692 5693 5693 5693 5693 5693 5693 5693 5693 5692 5692 5692 5691 5690 5689 5687 5685 5684 5682 5680 5678 5677 5675
5673 5675 5676 5677 5678 5679 5680 5680 5681 5682 5683 5683 5684 5685 5685 5685 5686 5686 5686 5686 5686 5686 5687 5687 5687 5686 5686 5686 5686 5686 5685 5685 5684 5683 5682 5681 5679 5677 5676 5674 5672 5670 5668 5666
5671 5672 5673 5674 5675 5676 5676 5677 5678 5679 5679 5679 5680 5680 5681 5681 5681 5681 5681 5681 5681 5681 5681 5681 5681 5680 5680 5680 5679 5679 5678 5678 5677 5676 5675 5674 5672 5670 5668 5667 5665 5663 5660 5658
5668 5669 5670 5671 5672 5673 5673 5674 5675 5676 5676 5676 5677 5677 5677 5677 5677 5677 5676 5676 5676 5675 5675 5675 5675 5675 5674 5674 5674 5673 5672 5671 5670 5669 5668 5666 5664 5663 5661 5659 5657 5654 5651 5649
5665 5666 5667 5668 5668 5670 5670 5671 5672 5672 5673 5673 5673 5673 5673 5673 5673 5673 5672 5672 5671 5671 5670 5670 5670 5669 5669 5669 5668 5667 5667 5666 5665 5663 5661 5659 5657 5656 5653 5651 5649 5646 5643 5640
5662 5663 5664 5665 5666 5667 5667 5668 5669 5669 5670 5670 5670 5670 5670 5670 5669 5669 5669 5668 5667 5667 5666 5665 5665 5664 5664 5663 5662 5661 5661 5659 5658 5657 5655 5653 5651 5648 5646 5643 5640 5637 5634 5631